[[{"header":{"parameterUnit":"m.s-1","parameterCategory":1,"la1":30.2992,"la2":30.254,"lo1":-89.0895,"lo2":-89.0443,"dy":0.0025,"dx":0.0025,"nx":19,"ny":19,"refTime":"2026-05-01T09:00:00:Z","depth":0,"parameterNumber":2,"parameterNumberName":"U-component_of_WINDS"},"data":[0,0,0,-1.9247,-1.9247,-1.9223,-1.9222,-1.9216,-1.9216,0,0,0,0,0,0,0,0,0,0,0,-1.9268,-1.9268,-1.9247,-1.9247,-1.9223,-1.9222,-1.9216,-1.9216,0,0,0,0,0,0,0,0,0,0,0,-1.9268,-1.9268,-1.9269,-1.9247,-1.9223,-1.9222,-1.9216,-1.9225,0,0,0,0,0,0,0,0,0,0,-1.9245,-1.9278,-1.9268,-1.9269,-1.9247,-1.9223,-1.9222,-1.9225,-1.9225,-1.9237,0,-1.925,0,-1.9233,-1.9217,-1.9217,0,0,0,-1.9236,-1.9278,-1.9259,-1.9269,-1.9246,-1.9223,-1.9231,-1.9225,-1.9224,-1.9236,-1.925,-1.9249,-1.9233,-1.9217,-1.9217,-1.9318,-1.9319,0,0,-1.9238,-1.9271,-1.926,-1.9259,-1.9264,-1.9231,-1.923,-1.9224,-1.9242,-1.925,-1.9249,-1.9233,-1.9217,-1.9217,-1.9317,-1.9318,0,0,0,-1.9248,-1.9273,-1.9253,-1.926,-1.9254,-1.9231,-1.9229,-1.9242,-1.9233,-1.9248,-1.9233,-1.9217,-1.9217,-1.9316,-1.9317,-1.9398,0,0,0,-1.9249,-1.9279,-1.9254,-1.9275,-1.9255,-1.9248,-1.9248,-1.9233,-1.9231,-1.9233,-1.9217,-1.9217,-1.9315,-1.9317,-1.9393,-1.9431,0,0,0,-1.9265,-1.9281,-1.9282,-1.9276,-1.9267,-1.9247,-1.9237,-1.9232,-1.9223,-1.9217,-1.9217,-1.9314,-1.9316,-1.9389,-1.9424,-1.9468,0,0,0,-1.9292,-1.9354,-1.9284,-1.9347,-1.9268,-1.9296,-1.9237,-1.9256,-1.9261,-1.9217,-1.9315,-1.9317,-1.9388,-1.942,-1.9464,-1.9513,-1.9535,0,0,-1.9389,-1.9367,-1.9401,-1.9337,-1.9387,-1.9297,-1.9358,-1.9331,-1.93,-1.9314,-1.9316,-1.9395,-1.9424,-1.9467,-1.9649,-1.9667,0,0,0,-1.9443,-1.9469,-1.9474,-1.948,-1.9459,-1.9446,-1.9405,-1.9394,-1.9405,-1.9314,-1.942,-1.9437,-1.9461,-1.9483,-1.9498,-1.9518,-1.9328,-1.9328,-1.9328,-1.9631,-1.9586,-1.964,-1.9593,-1.9599,-1.9556,-1.9557,-1.9536,-1.949,-1.9516,-1.9521,-1.9636,-1.9663,-1.9674,-1.9695,-1.9541,-1.9541,-1.9542,-1.9542,-1.977,-1.98,-1.9736,-1.9766,-1.9719,-1.9743,-1.9704,-1.967,-1.9687,-1.9629,-1.9648,-1.9591,-1.9696,-1.9712,-1.9548,-1.9547,-1.9546,-1.9545,-1.9545,-1.989,-1.9896,-1.9881,-1.9884,-1.9892,-1.9841,-1.986,-1.9816,-1.9775,-1.9794,-1.9795,-1.9793,-1.9788,-1.9797,-1.9797,-1.9798,-1.9798,-1.9798,-1.9798,-2.0021,-2.0001,-2.0022,-2.0005,-2.0002,-1.9994,-1.995,-1.9946,-1.9932,-1.9898,-1.9898,-1.9851,-1.9713,-1.9681,-1.9805,-1.9803,-1.9803,-1.9802,-1.9802,-2.0182,-2.0138,-2.0171,-2.0169,-2.0145,-2.0155,-2.0098,-2.0094,-2.0085,-2.0096,-2.0043,-1.9948,-1.9923,-1.991,-1.9883,-2.0051,-2.0051,-2.0051,-2.0051,-2.0285,-2.0267,-2.029,-2.0289,-2.0283,-2.0234,-2.0273,-2.0239,-2.0198,-2.0189,-2.0158,-2.0117,-2.0106,-2.0088,-2.0071,-2.0045,-2.0251,-2.0251,-2.0251,-2.0383,-2.0362,-2.0404,-2.0361,-2.0339,-2.0321,-2.0357,-2.0359,-2.0302,-2.0258,-2.0182,-2.0174,-2.0108,-2.0088,-2.0047,-2.0022,-1.9973,0,0]},{"header":{"parameterUnit":"m.s-1","parameterCategory":1,"la1":30.2992,"la2":30.254,"lo1":-89.0895,"lo2":-89.0443,"dy":0.0025,"dx":0.0025,"nx":19,"ny":19,"refTime":"2026-05-01T09:00:00:Z","depth":0,"parameterNumber":3,"parameterNumberName":"V-component_of_WINDS"},"data":[0,0,0,-0.08,-0.0799,-0.0768,-0.0768,-0.0711,-0.071,0,0,0,0,0,0,0,0,0,0,0,-0.0801,-0.08,-0.08,-0.0799,-0.0768,-0.0768,-0.0711,-0.071,0,0,0,0,0,0,0,0,0,0,0,-0.0801,-0.0801,-0.08,-0.0799,-0.0768,-0.0768,-0.0711,-0.074,0,0,0,0,0,0,0,0,0,0,-0.0773,-0.0767,-0.0801,-0.08,-0.0799,-0.0768,-0.0768,-0.0742,-0.0738,-0.0718,0,-0.07,0,-0.0704,-0.0706,-0.0705,0,0,0,-0.0805,-0.077,-0.0769,-0.08,-0.0798,-0.0768,-0.0784,-0.074,-0.0736,-0.0714,-0.07,-0.0698,-0.0703,-0.0705,-0.0705,-0.0573,-0.0572,0,0,-0.0806,-0.0791,-0.0772,-0.0766,-0.0772,-0.0785,-0.0783,-0.0738,-0.0721,-0.07,-0.0697,-0.0702,-0.0705,-0.0704,-0.0574,-0.0573,0,0,0,-0.0807,-0.0792,-0.0792,-0.0768,-0.0764,-0.0784,-0.0781,-0.0723,-0.0725,-0.0696,-0.0702,-0.0704,-0.0703,-0.0575,-0.0573,-0.0514,0,0,0,-0.0809,-0.0793,-0.0793,-0.0783,-0.0764,-0.0744,-0.0767,-0.0728,-0.0723,-0.0702,-0.0704,-0.0703,-0.0576,-0.0574,-0.0518,-0.0489,0,0,0,-0.0806,-0.0792,-0.0785,-0.0782,-0.0768,-0.0745,-0.0744,-0.0727,-0.0726,-0.0705,-0.0703,-0.0576,-0.0574,-0.0522,-0.0495,-0.0448,0,0,0,-0.0798,-0.0734,-0.0784,-0.0714,-0.0768,-0.0709,-0.0744,-0.0701,-0.0676,-0.0704,-0.0576,-0.0573,-0.0523,-0.0498,-0.0452,-0.0406,-0.0386,0,0,-0.0709,-0.0723,-0.0683,-0.0727,-0.0654,-0.0715,-0.0633,-0.0625,-0.0637,-0.0593,-0.059,-0.0517,-0.0495,-0.0449,-0.028,-0.0264,0,0,0,-0.0649,-0.062,-0.0604,-0.058,-0.0573,-0.0562,-0.0568,-0.0564,-0.0528,-0.0612,-0.0489,-0.0476,-0.045,-0.0429,-0.0415,-0.0392,-0.0563,-0.0564,-0.0564,-0.0501,-0.0519,-0.0453,-0.0467,-0.0442,-0.0448,-0.0429,-0.0424,-0.0451,-0.042,-0.0408,-0.0303,-0.0278,-0.0268,-0.0244,-0.0386,-0.0386,-0.0385,-0.0385,-0.0371,-0.0332,-0.0366,-0.0314,-0.0332,-0.0289,-0.029,-0.0309,-0.0269,-0.0315,-0.0293,-0.0341,-0.025,-0.0229,-0.0381,-0.0382,-0.0382,-0.0383,-0.0383,-0.0275,-0.0259,-0.0256,-0.0221,-0.0191,-0.0206,-0.0165,-0.0184,-0.0201,-0.0178,-0.0165,-0.0166,-0.0168,-0.0171,-0.0171,-0.017,-0.017,-0.017,-0.0169,-0.0177,-0.0175,-0.014,-0.0124,-0.0109,-0.0091,-0.0094,-0.0079,-0.0067,-0.0083,-0.0083,-0.011,-0.0238,-0.0269,-0.0164,-0.0165,-0.0166,-0.0166,-0.0166,-0.0037,-0.0071,-0.0016,-0.0001,0.0018,0.005,0.0027,0.006,0.0069,0.0091,0.006,-0.0032,-0.0048,-0.0059,-0.0085,0.0062,0.0062,0.0062,0.0062,0.0044,0.0035,0.0088,0.0114,0.0137,0.0123,0.0189,0.019,0.0185,0.0191,0.0167,0.0131,0.0121,0.0112,0.0097,0.0073,0.0256,0.0257,0.0257,0.013,0.0123,0.0181,0.0175,0.019,0.0204,0.0266,0.03,0.0287,0.0264,0.0196,0.0188,0.013,0.0111,0.0086,0.0063,0.0019,0,0]}]]